^^
Your Local Weather - Clay, NY Station Historical Data
Daily Summary for February 26, 2018 Units:  English    Metric   Both
« Previous Day
Next Day »
Daily Weekly Monthly Yearly Custom
  High: Low: Average:
Temperature: 46.2 °F 30.6 °F 38.7 °F
Dew Point: 32.7 °F 22.4 °F 27.6 °F
Humidity: 75% 50% 65%
Wind Speed: 6.0mph 0.0mph 2.6mph
Wind Gust: 11.0mph - -
Wind- - West
Pressure: 30.27 in 29.99 in -
Precipitation: 0.00 in    
Historical Graphs
 
 
Tabular Data for February 26, 2018
Time Temperature Dew Point Pressure Wind Wind Speed Wind Gust Humidity Rainfall Rate (Hourly) solar
00:16 39.5 °F 31.2 °F 29.99 in WSW 3.0 mph 6.0 mph 72% 0.00 in 0 W/m2
00:22 39.4 °F 31.1 °F 29.99 in West 2.0 mph 3.0 mph 72% 0.00 in 0 W/m2
00:28 39.1 °F 31.2 °F 29.99 in WSW 1.0 mph 4.0 mph 73% 0.00 in 0 W/m2
00:34 39.0 °F 31.1 °F 30.00 in WSW 2.0 mph 2.0 mph 73% 0.00 in 0 W/m2
00:40 38.9 °F 31.0 °F 30.00 in SW 2.0 mph 2.0 mph 73% 0.00 in 0 W/m2
00:46 38.9 °F 31.0 °F 30.00 in WSW 2.0 mph 3.0 mph 73% 0.00 in 0 W/m2
00:52 38.7 °F 31.1 °F 30.00 in WSW 2.0 mph 5.0 mph 74% 0.00 in 0 W/m2
00:58 38.7 °F 31.1 °F 30.00 in WNW 3.0 mph 8.0 mph 74% 0.00 in 0 W/m2
01:04 38.6 °F 31.0 °F 30.01 in WSW 3.0 mph 4.0 mph 74% 0.00 in 0 W/m2
01:10 38.5 °F 30.9 °F 30.01 in West 2.0 mph 2.0 mph 74% 0.00 in 0 W/m2
01:16 38.3 °F 30.7 °F 30.01 in SW 2.0 mph 4.0 mph 74% 0.00 in 0 W/m2
01:22 38.4 °F 30.8 °F 30.01 in WSW 3.0 mph 4.0 mph 74% 0.00 in 0 W/m2
01:36 38.3 °F 30.4 °F 30.02 in WSW 3.0 mph 9.0 mph 73% 0.00 in 0 W/m2
01:42 38.3 °F 30.4 °F 30.01 in West 3.0 mph 6.0 mph 73% 0.00 in 0 W/m2
01:48 38.2 °F 30.3 °F 30.01 in SW 3.0 mph 6.0 mph 73% 0.00 in 0 W/m2
01:54 38.1 °F 30.2 °F 30.01 in SW 3.0 mph 3.0 mph 73% 0.00 in 0 W/m2
02:00 38.1 °F 29.9 °F 30.02 in WSW 3.0 mph 3.0 mph 72% 0.00 in 0 W/m2
02:06 38.1 °F 29.9 °F 30.02 in WSW 3.0 mph 9.0 mph 72% 0.00 in 0 W/m2
02:12 38.1 °F 29.9 °F 30.02 in SW 4.0 mph 8.0 mph 72% 0.00 in 0 W/m2
02:18 38.1 °F 29.9 °F 30.02 in West 4.0 mph 8.0 mph 72% 0.00 in 0 W/m2
02:26 38.0 °F 29.8 °F 30.02 in West 3.0 mph 4.0 mph 72% 0.00 in 0 W/m2
02:32 37.9 °F 29.7 °F 30.02 in WSW 3.0 mph 4.0 mph 72% 0.00 in 0 W/m2
02:38 37.9 °F 29.7 °F 30.02 in WSW 3.0 mph 4.0 mph 72% 0.00 in 0 W/m2
02:44 37.8 °F 29.6 °F 30.03 in WSW 3.0 mph 6.0 mph 72% 0.00 in 0 W/m2
02:50 37.7 °F 29.5 °F 30.03 in WSW 4.0 mph 4.0 mph 72% 0.00 in 0 W/m2
02:56 37.7 °F 29.5 °F 30.03 in WSW 3.0 mph 5.0 mph 72% 0.00 in 0 W/m2
03:02 37.5 °F 29.3 °F 30.03 in WSW 2.0 mph 3.0 mph 72% 0.00 in 0 W/m2
03:08 37.6 °F 29.4 °F 30.03 in WSW 3.0 mph 3.0 mph 72% 0.00 in 0 W/m2
03:14 37.6 °F 29.4 °F 30.03 in West 3.0 mph 7.0 mph 72% 0.00 in 0 W/m2
03:20 37.5 °F 29.3 °F 30.03 in WSW 4.0 mph 4.0 mph 72% 0.00 in 0 W/m2
03:26 37.5 °F 29.3 °F 30.03 in WSW 3.0 mph 5.0 mph 72% 0.00 in 0 W/m2
03:32 37.3 °F 29.1 °F 30.03 in WSW 2.0 mph 2.0 mph 72% 0.00 in 0 W/m2
03:38 37.2 °F 29.0 °F 30.03 in West 2.0 mph 3.0 mph 72% 0.00 in 0 W/m2
03:46 37.1 °F 29.2 °F 30.03 in SW 2.0 mph 3.0 mph 73% 0.00 in 0 W/m2
03:52 36.9 °F 29.1 °F 30.03 in WSW 2.0 mph 2.0 mph 73% 0.00 in 0 W/m2
03:58 36.9 °F 29.1 °F 30.03 in SW 2.0 mph 3.0 mph 73% 0.00 in 0 W/m2
04:04 36.8 °F 29.0 °F 30.03 in WSW 2.0 mph 3.0 mph 73% 0.00 in 0 W/m2
04:10 36.7 °F 28.9 °F 30.03 in WSW 2.0 mph 2.0 mph 73% 0.00 in 0 W/m2
04:16 36.7 °F 28.9 °F 30.03 in SW 2.0 mph 2.0 mph 73% 0.00 in 0 W/m2
04:24 36.7 °F 28.9 °F 30.03 in West 2.0 mph 5.0 mph 73% 0.00 in 0 W/m2
04:30 36.7 °F 28.9 °F 30.03 in West 2.0 mph 3.0 mph 73% 0.00 in 0 W/m2
04:36 36.5 °F 29.0 °F 30.04 in West 2.0 mph 3.0 mph 74% 0.00 in 0 W/m2
04:42 36.4 °F 28.9 °F 30.04 in WSW 2.0 mph 2.0 mph 74% 0.00 in 0 W/m2
04:48 36.5 °F 29.0 °F 30.05 in SW 2.0 mph 4.0 mph 74% 0.00 in 0 W/m2
04:54 36.6 °F 29.1 °F 30.05 in WSW 2.0 mph 4.0 mph 74% 0.00 in 0 W/m2
05:00 36.5 °F 28.7 °F 30.05 in WSW 1.0 mph 3.0 mph 73% 0.00 in 0 W/m2
05:06 36.3 °F 28.8 °F 30.05 in West 1.0 mph 3.0 mph 74% 0.00 in 0 W/m2
05:12 36.2 °F 28.7 °F 30.05 in WSW 2.0 mph 3.0 mph 74% 0.00 in 0 W/m2
05:18 36.2 °F 28.4 °F 30.05 in WSW 2.0 mph 3.0 mph 73% 0.00 in 0 W/m2
05:24 36.2 °F 28.4 °F 30.05 in WSW 1.0 mph 3.0 mph 73% 0.00 in 0 W/m2
05:30 36.2 °F 28.4 °F 30.05 in WSW 1.0 mph 2.0 mph 73% 0.00 in 0 W/m2
05:36 36.2 °F 28.4 °F 30.06 in WSW 2.0 mph 3.0 mph 73% 0.00 in 0 W/m2
05:42 36.2 °F 28.4 °F 30.06 in WSW 2.0 mph 2.0 mph 73% 0.00 in 0 W/m2
05:48 36.0 °F 28.2 °F 30.06 in WSW 2.0 mph 2.0 mph 73% 0.00 in 0 W/m2
05:54 35.9 °F 28.1 °F 30.06 in WSW 1.0 mph 2.0 mph 73% 0.00 in 0 W/m2
06:00 35.9 °F 28.1 °F 30.06 in WSW 1.0 mph 1.0 mph 73% 0.00 in 0 W/m2
06:06 35.9 °F 28.1 °F 30.06 in WSW 2.0 mph 2.0 mph 73% 0.00 in 0 W/m2
06:12 35.9 °F 28.1 °F 30.06 in WSW 2.0 mph 2.0 mph 73% 0.00 in 0 W/m2
06:18 35.8 °F 28.0 °F 30.06 in WSW 1.0 mph 2.0 mph 73% 0.00 in 0 W/m2
06:24 35.8 °F 28.0 °F 30.06 in WSW 1.0 mph 5.0 mph 73% 0.00 in 0 W/m2
06:30 35.9 °F 27.7 °F 30.07 in WSW 2.0 mph 2.0 mph 72% 0.00 in 0 W/m2
06:36 35.9 °F 27.7 °F 30.08 in WSW 2.0 mph 5.0 mph 72% 0.00 in 0 W/m2
06:42 35.8 °F 27.7 °F 30.08 in WSW 2.0 mph 2.0 mph 72% 0.00 in 0 W/m2
06:48 35.7 °F 27.6 °F 30.08 in WSW 1.0 mph 2.0 mph 72% 0.00 in 0 W/m2
06:54 35.7 °F 27.6 °F 30.08 in WSW 1.0 mph 2.0 mph 72% 0.00 in 5 W/m2
07:00 35.7 °F 27.6 °F 30.08 in WSW 2.0 mph 3.0 mph 72% 0.00 in 11 W/m2
07:06 35.7 °F 27.2 °F 30.08 in West 2.0 mph 3.0 mph 71% 0.00 in 16 W/m2
07:12 35.7 °F 27.2 °F 30.08 in WSW 2.0 mph 2.0 mph 71% 0.00 in 21 W/m2
07:18 35.7 °F 27.2 °F 30.09 in WSW 2.0 mph 3.0 mph 71% 0.00 in 25 W/m2
07:24 35.7 °F 27.2 °F 30.09 in WSW 1.0 mph 2.0 mph 71% 0.00 in 28 W/m2
07:30 35.9 °F 27.4 °F 30.09 in WSW 2.0 mph 2.0 mph 71% 0.00 in 23 W/m2
07:36 36.0 °F 27.5 °F 30.10 in WSW 2.0 mph 2.0 mph 71% 0.00 in 30 W/m2
07:42 36.2 °F 27.4 °F 30.10 in WSW 2.0 mph 2.0 mph 70% 0.00 in 51 W/m2
07:48 36.4 °F 27.5 °F 30.09 in WSW 2.0 mph 2.0 mph 70% 0.00 in 33 W/m2
07:54 36.7 °F 27.5 °F 30.10 in West 2.0 mph 3.0 mph 69% 0.00 in 46 W/m2
08:00 37.0 °F 27.8 °F 30.10 in West 2.0 mph 2.0 mph 69% 0.00 in 107 W/m2
08:06 37.4 °F 27.8 °F 30.10 in WSW 2.0 mph 3.0 mph 68% 0.00 in 114 W/m2
08:12 38.0 °F 28.0 °F 30.11 in SW 2.0 mph 3.0 mph 67% 0.00 in 144 W/m2
08:18 38.4 °F 28.0 °F 30.11 in WSW 3.0 mph 3.0 mph 66% 0.00 in 132 W/m2
08:24 38.6 °F 28.2 °F 30.11 in WNW 3.0 mph 4.0 mph 66% 0.00 in 171 W/m2
08:30 38.8 °F 28.4 °F 30.11 in West 4.0 mph 10.0 mph 66% 0.00 in 165 W/m2
08:36 39.1 °F 28.7 °F 30.11 in WSW 4.0 mph 10.0 mph 66% 0.00 in 297 W/m2
08:42 39.4 °F 29.0 °F 30.11 in NW 3.0 mph 4.0 mph 66% 0.00 in 269 W/m2
08:48 39.8 °F 29.0 °F 30.11 in West 3.0 mph 5.0 mph 65% 0.00 in 216 W/m2
08:54 40.0 °F 29.2 °F 30.11 in WNW 3.0 mph 5.0 mph 65% 0.00 in 345 W/m2
09:00 40.3 °F 29.1 °F 30.11 in WNW 3.0 mph 5.0 mph 64% 0.00 in 211 W/m2
09:06 40.3 °F 28.7 °F 30.11 in West 4.0 mph 5.0 mph 63% 0.00 in 308 W/m2
09:12 40.6 °F 29.0 °F 30.11 in West 5.0 mph 6.0 mph 63% 0.00 in 292 W/m2
09:18 40.8 °F 28.8 °F 30.11 in West 5.0 mph 6.0 mph 62% 0.00 in 429 W/m2
09:24 41.4 °F 29.7 °F 30.11 in West 5.0 mph 5.0 mph 63% 0.00 in 443 W/m2
09:30 41.8 °F 29.3 °F 30.11 in WSW 4.0 mph 9.0 mph 61% 0.00 in 452 W/m2
09:36 41.4 °F 28.9 °F 30.11 in WSW 4.0 mph 10.0 mph 61% 0.00 in 469 W/m2
09:42 41.7 °F 30.0 °F 30.12 in West 5.0 mph 5.0 mph 63% 0.00 in 485 W/m2
09:48 41.8 °F 29.7 °F 30.12 in WSW 4.0 mph 6.0 mph 62% 0.00 in 504 W/m2
09:54 42.3 °F 30.2 °F 30.12 in West 4.0 mph 7.0 mph 62% 0.00 in 545 W/m2
10:00 42.4 °F 29.9 °F 30.12 in SW 5.0 mph 7.0 mph 61% 0.00 in 541 W/m2
10:06 42.4 °F 29.9 °F 30.12 in WNW 6.0 mph 7.0 mph 61% 0.00 in 503 W/m2
10:12 42.9 °F 30.0 °F 30.12 in West 5.0 mph 5.0 mph 60% 0.00 in 571 W/m2
10:18 42.4 °F 29.9 °F 30.12 in West 5.0 mph 9.0 mph 61% 0.00 in 575 W/m2
10:24 42.5 °F 29.2 °F 30.12 in West 5.0 mph 6.0 mph 59% 0.00 in 487 W/m2
10:30 42.8 °F 29.0 °F 30.12 in WNW 5.0 mph 5.0 mph 58% 0.00 in 599 W/m2
10:36 43.0 °F 29.2 °F 30.12 in NW 5.0 mph 7.0 mph 58% 0.00 in 598 W/m2
10:42 42.9 °F 29.5 °F 30.12 in WSW 5.0 mph 9.0 mph 59% 0.00 in 612 W/m2
10:48 43.3 °F 29.5 °F 30.12 in WNW 5.0 mph 9.0 mph 58% 0.00 in 633 W/m2
10:54 43.6 °F 30.2 °F 30.12 in WNW 5.0 mph 5.0 mph 59% 0.00 in 679 W/m2
11:00 44.3 °F 31.3 °F 30.12 in West 5.0 mph 8.0 mph 60% 0.00 in 719 W/m2
11:06 43.3 °F 29.5 °F 30.12 in NW 5.0 mph 11.0 mph 58% 0.00 in 708 W/m2
11:12 43.1 °F 29.7 °F 30.12 in NW 5.0 mph 10.0 mph 59% 0.00 in 98 W/m2
11:18 43.8 °F 29.1 °F 30.13 in WSW 5.0 mph 10.0 mph 56% 0.00 in 802 W/m2
11:24 44.8 °F 30.9 °F 30.12 in West 4.0 mph 6.0 mph 58% 0.00 in 689 W/m2
11:30 44.5 °F 30.2 °F 30.12 in NW 5.0 mph 5.0 mph 57% 0.00 in 805 W/m2
11:36 44.9 °F 30.6 °F 30.12 in SW 5.0 mph 9.0 mph 57% 0.00 in 842 W/m2
11:42 45.5 °F 29.8 °F 30.12 in West 4.0 mph 4.0 mph 54% 0.00 in 874 W/m2
11:48 45.2 °F 30.0 °F 30.13 in WNW 5.0 mph 9.0 mph 55% 0.00 in 853 W/m2
11:54 44.8 °F 32.6 °F 30.12 in NNW 4.0 mph 5.0 mph 62% 0.00 in 278 W/m2
12:00 43.8 °F 30.8 °F 30.13 in NNW 3.0 mph 3.0 mph 60% 0.00 in 772 W/m2
12:06 44.8 °F 30.5 °F 30.13 in NW 3.0 mph 5.0 mph 57% 0.00 in 169 W/m2
12:12 45.2 °F 31.7 °F 30.13 in NW 3.0 mph 3.0 mph 59% 0.00 in 705 W/m2
12:18 44.9 °F 31.0 °F 30.13 in West 4.0 mph 6.0 mph 58% 0.00 in 689 W/m2
12:24 45.1 °F 30.3 °F 30.13 in NW 4.0 mph 6.0 mph 56% 0.00 in 689 W/m2
12:30 45.1 °F 31.2 °F 30.13 in NW 5.0 mph 6.0 mph 58% 0.00 in 701 W/m2
12:36 45.3 °F 30.5 °F 30.13 in WNW 5.0 mph 6.0 mph 56% 0.00 in 214 W/m2
12:42 44.0 °F 30.6 °F 30.13 in NNW 5.0 mph 10.0 mph 59% 0.00 in 232 W/m2
12:48 44.1 °F 31.9 °F 30.13 in West 6.0 mph 10.0 mph 62% 0.00 in 733 W/m2
12:54 44.9 °F 31.4 °F 30.13 in NW 5.0 mph 8.0 mph 59% 0.00 in 686 W/m2
13:00 45.3 °F 31.8 °F 30.13 in WNW 5.0 mph 5.0 mph 59% 0.00 in 700 W/m2
13:06 45.0 °F 31.1 °F 30.13 in WNW 4.0 mph 5.0 mph 58% 0.00 in 652 W/m2
13:12 45.4 °F 32.7 °F 30.13 in North 4.0 mph 6.0 mph 61% 0.00 in 645 W/m2
13:18 45.8 °F 32.3 °F 30.13 in NW 4.0 mph 6.0 mph 59% 0.00 in 640 W/m2
13:24 45.4 °F 31.5 °F 30.13 in WNW 4.0 mph 9.0 mph 58% 0.00 in 635 W/m2
13:30 45.2 °F 31.3 °F 30.13 in WNW 5.0 mph 5.0 mph 58% 0.00 in 622 W/m2
13:36 45.0 °F 30.2 °F 30.13 in WNW 5.0 mph 8.0 mph 56% 0.00 in 615 W/m2
13:42 45.8 °F 30.5 °F 30.13 in WNW 4.0 mph 4.0 mph 55% 0.00 in 612 W/m2
13:48 46.2 °F 31.4 °F 30.14 in NNW 3.0 mph 5.0 mph 56% 0.00 in 605 W/m2
13:54 45.1 °F 30.3 °F 30.14 in WNW 4.0 mph 7.0 mph 56% 0.00 in 598 W/m2
14:00 45.3 °F 30.5 °F 30.14 in NW 5.0 mph 5.0 mph 56% 0.00 in 587 W/m2
14:06 45.9 °F 31.1 °F 30.14 in NW 4.0 mph 5.0 mph 56% 0.00 in 577 W/m2
14:12 45.8 °F 30.5 °F 30.14 in WNW 3.0 mph 3.0 mph 55% 0.00 in 566 W/m2
14:18 44.8 °F 30.5 °F 30.14 in NW 5.0 mph 11.0 mph 57% 0.00 in 554 W/m2
14:24 44.9 °F 30.1 °F 30.14 in WNW 6.0 mph 8.0 mph 56% 0.00 in 541 W/m2
14:30 44.9 °F 29.7 °F 30.14 in NNW 5.0 mph 5.0 mph 55% 0.00 in 534 W/m2
14:36 45.5 °F 30.7 °F 30.14 in NW 4.0 mph 6.0 mph 56% 0.00 in 522 W/m2
14:42 45.2 °F 29.5 °F 30.14 in NW 4.0 mph 4.0 mph 54% 0.00 in 508 W/m2
14:48 45.1 °F 30.3 °F 30.14 in NW 5.0 mph 7.0 mph 56% 0.00 in 494 W/m2
14:54 44.9 °F 29.2 °F 30.14 in WNW 5.0 mph 5.0 mph 54% 0.00 in 485 W/m2
15:00 44.6 °F 29.0 °F 30.14 in WNW 5.0 mph 5.0 mph 54% 0.00 in 473 W/m2
15:06 44.9 °F 27.8 °F 30.14 in NW 5.0 mph 7.0 mph 51% 0.00 in 459 W/m2
15:14 44.4 °F 27.4 °F 30.14 in NNW 5.0 mph 10.0 mph 51% 0.00 in 441 W/m2
15:20 44.3 °F 28.2 °F 30.15 in West 5.0 mph 5.0 mph 53% 0.00 in 422 W/m2
15:26 44.8 °F 28.2 °F 30.15 in NW 4.0 mph 6.0 mph 52% 0.00 in 410 W/m2
15:32 44.4 °F 26.9 °F 30.15 in WNW 4.0 mph 5.0 mph 50% 0.00 in 394 W/m2
15:38 43.5 °F 26.6 °F 30.15 in NNE 5.0 mph 11.0 mph 51% 0.00 in 378 W/m2
15:44 43.2 °F 26.7 °F 30.15 in NNW 6.0 mph 9.0 mph 52% 0.00 in 364 W/m2
15:56 42.9 °F 26.5 °F 30.16 in NW 5.0 mph 11.0 mph 52% 0.00 in 329 W/m2
16:02 42.9 °F 26.5 °F 30.16 in West 5.0 mph 7.0 mph 52% 0.00 in 309 W/m2
16:08 42.7 °F 25.8 °F 30.16 in WNW 5.0 mph 7.0 mph 51% 0.00 in 294 W/m2
16:14 42.6 °F 26.2 °F 30.16 in West 5.0 mph 5.0 mph 52% 0.00 in 274 W/m2
16:26 42.4 °F 25.5 °F 30.16 in WNW 4.0 mph 5.0 mph 51% 0.00 in 243 W/m2
16:32 41.9 °F 25.1 °F 30.16 in WNW 5.0 mph 8.0 mph 51% 0.00 in 221 W/m2
16:38 41.5 °F 25.2 °F 30.16 in NW 5.0 mph 8.0 mph 52% 0.00 in 32 W/m2
16:44 41.3 °F 24.5 °F 30.16 in NW 5.0 mph 7.0 mph 51% 0.00 in 30 W/m2
16:50 41.1 °F 24.8 °F 30.17 in WNW 5.0 mph 5.0 mph 52% 0.00 in 28 W/m2
16:56 40.9 °F 24.6 °F 30.17 in WNW 4.0 mph 6.0 mph 52% 0.00 in 26 W/m2
17:02 40.7 °F 24.4 °F 30.17 in NW 4.0 mph 4.0 mph 52% 0.00 in 25 W/m2
17:08 40.6 °F 24.8 °F 30.17 in WNW 4.0 mph 4.0 mph 53% 0.00 in 23 W/m2
17:14 40.4 °F 24.6 °F 30.17 in WNW 3.0 mph 6.0 mph 53% 0.00 in 21 W/m2
17:20 40.2 °F 25.3 °F 30.17 in NW 3.0 mph 3.0 mph 55% 0.00 in 19 W/m2
17:26 39.9 °F 25.0 °F 30.18 in WNW 3.0 mph 5.0 mph 55% 0.00 in 16 W/m2
17:32 39.7 °F 24.8 °F 30.18 in WNW 3.0 mph 3.0 mph 55% 0.00 in 14 W/m2
17:38 39.4 °F 25.0 °F 30.18 in NW 2.0 mph 4.0 mph 56% 0.00 in 11 W/m2
17:44 39.2 °F 24.8 °F 30.18 in West 2.0 mph 5.0 mph 56% 0.00 in 7 W/m2
17:50 38.9 °F 24.5 °F 30.19 in West 1.0 mph 1.0 mph 56% 0.00 in 5 W/m2
17:56 38.6 °F 24.2 °F 30.19 in West 1.0 mph 2.0 mph 56% 0.00 in 0 W/m2
18:02 38.4 °F 24.5 °F 30.19 in West 1.0 mph 1.0 mph 57% 0.00 in 0 W/m2
18:08 38.2 °F 24.3 °F 30.19 in Calm   1.0 mph 57% 0.00 in 0 W/m2
18:14 38.1 °F 24.6 °F 30.19 in West 1.0 mph 2.0 mph 58% 0.00 in 0 W/m2
18:20 37.9 °F 24.4 °F 30.19 in West 1.0 mph 1.0 mph 58% 0.00 in 0 W/m2
18:26 37.8 °F 24.3 °F 30.19 in West 1.0 mph 2.0 mph 58% 0.00 in 0 W/m2
18:32 37.7 °F 24.2 °F 30.20 in Calm   2.0 mph 58% 0.00 in 0 W/m2
18:38 37.5 °F 24.1 °F 30.20 in Calm   2.0 mph 58% 0.00 in 0 W/m2
18:44 37.4 °F 24.4 °F 30.20 in West 1.0 mph 2.0 mph 59% 0.00 in 0 W/m2
18:50 37.3 °F 24.3 °F 30.20 in Calm     59% 0.00 in 0 W/m2
18:56 37.1 °F 24.1 °F 30.20 in Calm     59% 0.00 in 0 W/m2
19:02 36.8 °F 24.2 °F 30.20 in Calm     60% 0.00 in 0 W/m2
19:08 36.5 °F 24.3 °F 30.20 in Calm     61% 0.00 in 0 W/m2
19:16 36.1 °F 23.9 °F 30.20 in Calm   1.0 mph 61% 0.00 in 0 W/m2
19:26 35.5 °F 24.1 °F 30.21 in Calm     63% 0.00 in 0 W/m2
19:32 35.3 °F 24.0 °F 30.21 in Calm     63% 0.00 in 0 W/m2
19:38 35.1 °F 24.1 °F 30.21 in Calm     64% 0.00 in 0 W/m2
19:44 35.0 °F 24.4 °F 30.21 in Calm     65% 0.00 in 0 W/m2
19:50 34.8 °F 24.2 °F 30.21 in Calm     65% 0.00 in 0 W/m2
19:56 34.6 °F 24.0 °F 30.21 in Calm   2.0 mph 65% 0.00 in 0 W/m2
20:02 34.3 °F 24.1 °F 30.21 in Calm     66% 0.00 in 0 W/m2
20:08 34.1 °F 23.9 °F 30.22 in Calm     66% 0.00 in 0 W/m2
20:14 33.9 °F 24.1 °F 30.21 in Calm     67% 0.00 in 0 W/m2
20:20 33.6 °F 23.8 °F 30.21 in Calm     67% 0.00 in 0 W/m2
20:26 33.2 °F 23.8 °F 30.22 in Calm     68% 0.00 in 0 W/m2
20:32 33.0 °F 23.6 °F 30.22 in Calm     68% 0.00 in 0 W/m2
20:38 32.7 °F 23.6 °F 30.22 in Calm     69% 0.00 in 0 W/m2
20:44 32.7 °F 24.0 °F 30.22 in Calm     70% 0.00 in 0 W/m2
20:50 32.6 °F 23.9 °F 30.22 in Calm     70% 0.00 in 0 W/m2
20:56 32.4 °F 23.7 °F 30.22 in Calm     70% 0.00 in 0 W/m2
21:02 32.3 °F 23.9 °F 30.22 in Calm     71% 0.00 in 0 W/m2
21:08 32.1 °F 23.8 °F 30.22 in Calm     71% 0.00 in 0 W/m2
21:14 31.8 °F 23.8 °F 30.22 in Calm     72% 0.00 in 0 W/m2
21:20 31.6 °F 23.6 °F 30.22 in Calm     72% 0.00 in 0 W/m2
21:26 31.4 °F 23.4 °F 30.22 in Calm     72% 0.00 in 0 W/m2
21:32 31.1 °F 23.5 °F 30.22 in Calm     73% 0.00 in 0 W/m2
21:38 31.0 °F 23.7 °F 30.22 in Calm     74% 0.00 in 0 W/m2
21:44 30.9 °F 23.6 °F 30.22 in Calm     74% 0.00 in 0 W/m2
21:50 30.9 °F 23.6 °F 30.23 in Calm     74% 0.00 in 0 W/m2
21:56 30.8 °F 23.5 °F 30.23 in Calm     74% 0.00 in 0 W/m2
22:02 30.7 °F 23.4 °F 30.23 in Calm     74% 0.00 in 0 W/m2
22:08 30.6 °F 23.3 °F 30.23 in Calm     74% 0.00 in 0 W/m2
22:14 30.9 °F 23.9 °F 30.23 in Calm     75% 0.00 in 0 W/m2
22:20 31.5 °F 24.5 °F 30.24 in West 1.0 mph 2.0 mph 75% 0.00 in 0 W/m2
22:26 32.1 °F 24.7 °F 30.24 in West 1.0 mph 2.0 mph 74% 0.00 in 0 W/m2
22:32 32.6 °F 24.6 °F 30.24 in West 1.0 mph 1.0 mph 72% 0.00 in 0 W/m2
22:38 33.1 °F 24.4 °F 30.24 in West 1.0 mph 1.0 mph 70% 0.00 in 0 W/m2
22:44 33.4 °F 24.3 °F 30.24 in West 1.0 mph 1.0 mph 69% 0.00 in 0 W/m2
22:50 33.8 °F 24.0 °F 30.24 in West 1.0 mph 1.0 mph 67% 0.00 in 0 W/m2
22:52 34.0 °F 23.8 °F 30.24 in West 1.0 mph 1.0 mph 66% 0.00 in 0 W/m2
22:58 34.1 °F 23.6 °F 30.25 in West 1.0 mph 3.0 mph 65% 0.00 in 0 W/m2
23:04 34.1 °F 23.2 °F 30.25 in Calm   1.0 mph 64% 0.00 in 0 W/m2
23:10 33.9 °F 23.0 °F 30.25 in Calm     64% 0.00 in 0 W/m2
23:16 33.9 °F 23.0 °F 30.25 in Calm   2.0 mph 64% 0.00 in 0 W/m2
23:22 33.8 °F 22.9 °F 30.25 in Calm   1.0 mph 64% 0.00 in 0 W/m2
23:28 33.7 °F 22.8 °F 30.25 in Calm   1.0 mph 64% 0.00 in 0 W/m2
23:34 33.7 °F 22.8 °F 30.26 in West 1.0 mph 2.0 mph 64% 0.00 in 0 W/m2
23:40 33.8 °F 22.9 °F 30.26 in West 1.0 mph 3.0 mph 64% 0.00 in 0 W/m2
23:46 33.8 °F 22.5 °F 30.26 in West 1.0 mph 3.0 mph 63% 0.00 in 0 W/m2
23:52 33.7 °F 22.4 °F 30.26 in West 1.0 mph 1.0 mph 63% 0.00 in 0 W/m2
23:58 33.7 °F 22.4 °F 30.27 in Calm   1.0 mph 63% 0.00 in 0 W/m2
Country Meadow, Clay, NY, USA
Compliments of Weather Underground - 2 mb